This is the latest recevied weather packets stored in our database for station/object WX5HOT. If no packets are shown the sender has not sent any weather packets the latest 10 day(s).
| Time | Temp. | Humidity | Pressure | Rain* | Wind** | Luminosity | Snow |
|---|---|---|---|---|---|---|---|
| 1777922999 | 20.56° C | 55% | 1062.3 hPa | 0 mm | - | 316 W/m² | - |
| 1777922696 | 20.56° C | 54% | 1062.5 hPa | 0 mm | - | 320 W/m² | - |
| 1777922395 | 20.56° C | 54% | 1062.6 hPa | 0 mm | - | 400 W/m² | - |
| 1777922092 | 20.56° C | 55% | 1062.7 hPa | 0 mm | - | 480 W/m² | - |
| 1777921787 | 20° C | 55% | 1062.4 hPa | 0 mm | - | 302 W/m² | - |
| 1777921483 | 20.56° C | 55% | 1062.5 hPa | 0 mm | - | 282 W/m² | - |
| 1777921180 | 20.56° C | 54% | 1062.3 hPa | 0 mm | - | 230 W/m² | - |
| 1777920878 | 20.56° C | 53% | 1062.4 hPa | 0 mm | - | 415 W/m² | - |
| 1777920573 | 21.11° C | 53% | 1062.5 hPa | 0 mm | - | 221 W/m² | - |
| 1777920269 | 20.56° C | 53% | 1062.8 hPa | 0 mm | - | 477 W/m² | - |
| 1777919965 | 20.56° C | 53% | 1062.7 hPa | 0 mm | - | 1015 W/m² | - |
| 1777919663 | 20° C | 53% | 1063.1 hPa | 0 mm | - | 396 W/m² | - |
| 1777919361 | 20.56° C | 52% | 1063.1 hPa | 0 mm | - | 1081 W/m² | - |
| 1777919057 | 21.11° C | 52% | 1062.7 hPa | 0 mm | - | 374 W/m² | - |
| 1777918754 | 20.56° C | 51% | 1063 hPa | 0 mm | - | 127 W/m² | - |
| 1777918452 | 20.56° C | 52% | 1063.1 hPa | 0 mm | - | 151 W/m² | - |
| 1777918150 | 20.56° C | 51% | 1063 hPa | 0 mm | - | 475 W/m² | - |
| 1777917849 | 20.56° C | 51% | 1063.3 hPa | 0 mm | - | 951 W/m² | - |
| 1777917547 | 20.56° C | 51% | 1063.3 hPa | 0 mm | - | 509 W/m² | - |
| 1777917243 | 20° C | 51% | 1063.2 hPa | 0 mm | - | 887 W/m² | - |
| 1777916941 | 20° C | 51% | 1063.3 hPa | 0 mm | - | 948 W/m² | - |
| 1777916638 | 20° C | 51% | 1063.3 hPa | 0 mm | - | 943 W/m² | - |
| 1777916335 | 20° C | 51% | 1063.2 hPa | 0 mm | - | 906 W/m² | - |
| 1777916032 | 20° C | 52% | 1063.4 hPa | 0 mm | - | 947 W/m² | - |
| 1777915729 | 20° C | 52% | 1063.2 hPa | 0 mm | - | 942 W/m² | - |
* Rain latest hour (hover to see other rain measurements)
** Current wind speed in m/s (hover to see current wind gust speed)